CALSPHERE 1 1 00900U 64063C 21111.57067179 .00000280 00000-0 28997-3 0 9994 2 00900 90.1659 33.4810 0025343 207.1687 326.6629 13.73516915812745 CALSPHERE 2 1 00902U 64063E 21111.61350964 .00000033 00000-0 37240-4 0 9996 2 00902 90.1787 36.2861 0016532 295.4608 182.6421 13.52694155601745 LCS 1 1 01361U 65034C 21111.53094921 .00000022 00000-0 17772-2 0 9998 2 01361 32.1448 327.0756 0010544 182.9266 177.1171 9.89299000 23447 TEMPSAT 1 1 01512U 65065E 21111.59079266 .00000013 00000-0 54704-5 0 9990 2 01512 89.8948 222.6155 0071432 134.1954 237.9195 13.33435833709158 CALSPHERE 4A 1 01520U 65065H 21111.58991722 .00000058 00000-0 94426-4 0 9991 2 01520 90.0127 129.9286 0070307 14.7997 107.1712 13.35839645711331 OPS 5712 (P/L 160) 1 02826U 67053A 21111.58928080 .00000725 00000-0 20528-3 0 9999 2 02826 69.9283 197.6406 0008352 231.6346 128.4038 14.49464683791588 OPS 5712 (P/L 153) 1 02874U 67053H 21111.58411252 -.00000034 00000-0 13916-4 0 9998 2 02874 69.9741 188.7251 0005315 136.3070 223.8457 13.96367184743963 SURCAL 150B 1 02909U 67053J 21111.57390167 .00001094 00000-0 23014-3 0 9992 2 02909 69.9481 206.9907 0006453 261.9020 98.1388 14.62277519801910 RIGIDSPHERE 2 (LCS 4) 1 05398U 71067E 21111.54708753 .00000205 00000-0 65602-4 0 9991 2 05398 87.6211 139.4574 0062458 339.0377 20.8260 14.33982120603798 COSMOS 2493 (SKRL-756 1) 1 39490U 13078A 21111.75987756 .00000423 00000-0 42450-4 0 9992 2 39490 82.4159 278.0341 0018613 58.6025 301.7010 14.88771582397277 COSMOS 2494 (SKRL-756 2) 1 39491U 13078B 21111.79788091 .00000435 00000-0 42097-4 0 9998 2 39491 82.4162 272.6701 0022878 38.1479 322.1353 14.90165618397543